Location: Godiavel Galaoual
(15.2485°N, 12.6604°W)
Time: 14:29:53
(UTC+00:00)

Palapa 6 Rocket - Pass Details

Date: 27 February 2020
Orbit: 485 x 1217 km, 22.7° (Epoch: 29 March)

Event Time Altitude Azimuth Distance (km) Brightness Sun altitude
Rises 20:53:33 0° 257° (WSW) 2,596 7.4 -28.6°
Reaches altitude 10° 20:55:39 10° 260° (W) 1,763 6.3 -29.2°
Enters shadow 20:57:54 33° 268° (W) 944 4.5 -29.7°
